Terminal Aerodrome Forecast
Issued by NWS

Home | Current Version | Previous Version | Text Only | Print | Product List | Glossary On
Versions: 1 2 3 4 5 6 7 8 9 10 11 12 13 14 15 16 17 18 19 20 21 22 23 24 25 26 27 28 29 30 31 32 33 34 35 36 37 38 39 40 41 42 43
000
FTUS43 KMKX 301529 AAD
TAFUES
TAF AMD
KUES 301529Z 3015/0112 32008KT P6SM BKN013
     FM301700 33008KT P6SM BKN025
     FM301900 34009KT P6SM BKN035
     FM302200 01007KT P6SM SCT040
     FM010100 05006KT P6SM SCT250
     FM010400 00000KT P6SM SCT250=

USA.gov is the U.S. government's official web portal to all federal, state and local government web resources and services.